sat.trackr.live / text

‹ back to catalog

STARLINK-3799

NORAD 52382 · 2022-045BD

PAYLOAD ACTIVE UNKNOWN

§ Identity

Operator
Country
US
Launch date
2022-04-29
Launch site
AFETR
Launch vehicle
Mass (kg)
RCS (m²)

Purposes: comms

External: N2YO · Heavens-Above · Gunter

§ Orbital elements

Epoch: 2026-09-20T04:00:03.000096Z

Period
92.60 min
Inclination
53.2114°
Eccentricity
0.0001950
Mean motion
15.55088548 rev/d
Perigee alt
400.6 km
Apogee alt
403.2 km
Semi-major
6,780.0 km
B*
2.6342e-3
RAAN
6.1763°
Arg perigee
60.7626°
Mean anomaly
243.2978°
Rev number
590

§ Raw data

STARLINK-37991 52382U 22045BD  26263.16670139  .00184117  00000+0  26342-2 0  99952 52382  53.2114   6.1763 0001950  60.7626 243.2978 15.55088548  5901

JSON: /api/v1/satellites/52382 · /tle

For live sub-satellite position, see the globe view (requires WebGL).

§ Visibility from observer

Set your observer location to see the next 7 days of passes ≥ 10°. The values pass through the URL so the page stays shareable.

No JS? Fill the form by hand. The geolocation button needs JavaScript.